Regional Weather Roundup
Issued by NWS Little Rock, AR

Home | Current Version | Previous Version | Text Only | Print | Product List | Glossary On
Versions: 1 2 3 4 5 6 7 8 9 10 11 12 13 14 15 16 17 18 19 20 21 22 23 24 25 26 27 28 29 30 31 32
000
ASUS44 KLZK 060105
RWRLZK

WEATHER ROUNDUP FOR ARKANSAS
NATIONAL WEATHER SERVICE LITTLE ROCK AR
700 PM CST MON DEC 05 2016

NOTE: "FAIR" INDICATES FEW OR NO CLOUDS BELOW 12,000 FEET WITH NO
SIGNIFICANT WEATHER AND/OR OBSTRUCTIONS TO VISIBILITY.

ARZ001-003-010-029-060200-
NORTHWEST ARKANSAS

CITY           SKY/WX    TMP DP  RH WIND       PRES   REMARKS
FAYETTEVILLE   CLOUDY    46  40  79 CALM      29.73S
FORT SMITH     CLOUDY    48  39  71 E9        29.73F
HARRISON       CLOUDY    41  38  89 SE12      29.75F
BENTONVILLE    CLOUDY    46  36  66 E5        29.73S
ROGERS         CLOUDY    45  39  79 E6        29.73S
SILOAM SPGS    PTCLDY    45  36  70 S5        29.72F
HIGHFILL       CLOUDY    46  37  71 SE3       29.71F
SPRINGDALE     CLOUDY    48  37  66 SE5       29.74S
$$

ARZ004-005-016-060200-
NORTH CENTRAL ARKANSAS

CITY           SKY/WX    TMP DP  RH WIND       PRES   REMARKS
BATESVILLE     CLOUDY    43  39  87 CALM      29.82S
FLIPPIN        CLOUDY    43  34  70 E6        29.77F
MTN HOME       CLOUDY    41  37  86 S7        29.79R
$$

ARZ040-041-060200-
WEST CENTRAL ARKANSAS

CITY           SKY/WX    TMP DP  RH WIND       PRES   REMARKS
MENA           CLOUDY    46  46 100 E3        29.74S
MOUNT IDA      CLOUDY    46  44  93 CALM      29.72F FOG
$$

ARZ009-017-025-026-028-060200-
NORTHEAST ARKANSAS

CITY           SKY/WX    TMP DP  RH WIND       PRES   REMARKS
CORNING        CLOUDY    43  39  87 E8        29.84R
JONESBORO      CLOUDY    43  40  89 NE13      29.80F
NEWPORT        CLOUDY    43  41  93 NE10      29.81
WALNUT RIDGE   CLOUDY    43  37  81 NE10      29.82S
BLYTHEVILLE    CLOUDY    45  40  82 NE8       29.82F
$$

ARZ022-023-033-042-044-060200-
CENTRAL ARKANSAS

CITY           SKY/WX    TMP DP  RH WIND       PRES   REMARKS
LITTLE ROCK    DRIZZLE   43  43 100 N6        29.79R FOG
N LITTLE ROCK    N/A     42  41  96 NE6       29.80S
JACKSONVILLE   LGT RAIN  43  43  99 N5        29.78R FOG
SEARCY         CLOUDY    43  43 100 NE10      29.81R FOG
HOT SPRINGS    CLOUDY    45  44  97 NE6       29.75F
RUSSELLVILLE   CLOUDY    43  42  97 E3        29.77F FOG
CLINTON        CLOUDY    43  41  93 E3        29.80F
$$

ARZ036-060200-
EAST ARKANSAS

CITY           SKY/WX    TMP DP  RH WIND       PRES   REMARKS
WEST MEMPHIS   CLOUDY    47  43  86 E7        29.78F
$$

ARZ050-053-066-070-073-060200-
SOUTHWEST ARKANSAS

CITY           SKY/WX    TMP DP  RH WIND       PRES   REMARKS
ARKADELPHIA    LGT RAIN  45  44  97 NE6       29.77F FOG
CAMDEN         CLOUDY    46  43  87 N6        29.75R FOG
TEXARKANA      CLOUDY    46  45  96 CALM      29.75R
EL DORADO      CLOUDY    47  46  97 N5        29.72F
DE QUEEN       CLOUDY    48  45  89 E6        29.73S FOG
$$

ARZ056-057-069-060200-
SOUTHEAST ARKANSAS

CITY           SKY/WX    TMP DP  RH WIND       PRES   REMARKS
PINE BLUFF     CLOUDY    45  44  97 NE9       29.75F FOG
STUTTGART      CLOUDY    45  39  81 NE8       29.78S
MONTICELLO     CLOUDY    47  46  97 NE8       29.73F FOG

$$






USA.gov is the U.S. government's official web portal to all federal, state and local government web resources and services.